Location: Unspecified
(41.1637°N, 24.2901°E)
Time: 15:27:44
(UTC+01:00)

ISS - Pass Details

Date: 03 December 2025
Orbit: 416 x 421 km, 51.6° (Epoch: 07 December)

Event Time Altitude Azimuth Distance (km) Brightness Sun altitude
Rises 16:50:27 0° 298° (WNW) 2,365 0.7 -10.4°
Reaches altitude 10° 16:52:41 10° 287° (WNW) 1,497 -0.1 -10.8°
Maximum altitude 16:55:41 30° 224° (SW) 773 -1.7 -11.3°
Drops below altitude 10° 16:58:39 10° 161° (SSE) 1,485 -1.0 -11.9°
Sets 17:00:52 0° 150° (SSE) 2,343 -0.1 -12.3°
